This is the latest recevied weather packets stored in our database for station/object WD0REW. If no packets are shown the sender has not sent any weather packets the latest 10 day(s).
| Time | Temp. | Humidity | Pressure | Rain* | Wind** | Luminosity | Snow |
|---|---|---|---|---|---|---|---|
| 1777913955 | 25.56° C | 45% | 1008.1 hPa | 0 mm | - | 775 W/m² | - |
| 1777913652 | 26.11° C | 43% | 1008.2 hPa | 0 mm | - | 770 W/m² | - |
| 1777913349 | 25.56° C | 45% | 1008.2 hPa | 0 mm | - | 765 W/m² | - |
| 1777913046 | 25° C | 48% | 1008.3 hPa | 0 mm | - | 756 W/m² | - |
| 1777912741 | 25° C | 46% | 1008.2 hPa | 0 mm | - | 750 W/m² | - |
| 1777912437 | 24.44° C | 45% | 1008.4 hPa | 0 mm | - | 742 W/m² | - |
| 1777912134 | 24.44° C | 46% | 1008.5 hPa | 0 mm | - | 735 W/m² | - |
| 1777911829 | 25° C | 47% | 1008.5 hPa | 0 mm | - | 727 W/m² | - |
| 1777911526 | 24.44° C | 44% | 1008.7 hPa | 0 mm | - | 722 W/m² | - |
| 1777911223 | 24.44° C | 45% | 1008.6 hPa | 0 mm | - | 713 W/m² | - |
| 1777910920 | 24.44° C | 43% | 1008.8 hPa | 0 mm | - | 706 W/m² | - |
| 1777910618 | 23.89° C | 45% | 1008.7 hPa | 0 mm | - | 696 W/m² | - |
| 1777910314 | 23.89° C | 45% | 1008.8 hPa | 0 mm | - | 685 W/m² | - |
| 1777910011 | 23.89° C | 43% | 1009 hPa | 0 mm | - | 680 W/m² | - |
| 1777909708 | 24.44° C | 45% | 1008.9 hPa | 0 mm | - | 667 W/m² | - |
| 1777909406 | 24.44° C | 44% | 1008.8 hPa | 0 mm | - | 657 W/m² | - |
| 1777909103 | 23.89° C | 45% | 1009.1 hPa | 0 mm | - | 644 W/m² | - |
| 1777908801 | 23.89° C | 44% | 1008.9 hPa | 0 mm | - | 633 W/m² | - |
| 1777908497 | 23.89° C | 44% | 1009 hPa | 0 mm | - | 618 W/m² | - |
| 1777908194 | 23.33° C | 46% | 1008.9 hPa | 0 mm | - | 607 W/m² | - |
| 1777907891 | 23.89° C | 44% | 1008.9 hPa | 0 mm | - | 594 W/m² | - |
| 1777907586 | 23.33° C | 45% | 1009.1 hPa | 0 mm | - | 580 W/m² | - |
| 1777907282 | 23.33° C | 44% | 1009.1 hPa | 0 mm | - | 568 W/m² | - |
| 1777906979 | 22.78° C | 47% | 1009.2 hPa | 0 mm | - | 553 W/m² | - |
| 1777906677 | 22.22° C | 49% | 1009.3 hPa | 0 mm | - | 538 W/m² | - |
* Rain latest hour (hover to see other rain measurements)
** Current wind speed in m/s (hover to see current wind gust speed)